Torna al catalogo

ARIANE 44L+ DEB

AttivoGTO
NORAD 28577·DEBRIS·🇫🇷 France

Lanciato Apr 15, 1992 da Guiana Space Centre

Loading…

TLE

ObsoletoSource: Space-Track

Epoca: Sep 14, 2026, 09:23 UTC

1 28577U 92021R   26257.39137854 -.00000068  00000-0  00000-0 0  9990
2 28577   3.6930  69.1359 6988069 356.1516 295.2875  2.23208199179717

Traccia ARIANE 44L+ DEB in tempo reale con AllMySat

Download on the App Store